Regional Weather Roundup
Issued by NWS Wakefield, VA

Home | Current Version | Previous Version | Text Only | Print | Product List | Glossary Off
Versions: 1 2 3 4 5 6 7 8 9 10 11 12 13 14 15 16 17 18 19 20 21 22 23 24 25 26 27 28 29 30 31 32 33 34 35 36 37 38 39 40 41 42 43 44 45 46 47 48 49 50

522
ASUS41 KAKQ 301715
RWRAKQ

REGIONAL WEATHER ROUNDUP
NATIONAL WEATHER SERVICE WAKEFIELD VA
100 PM EDT MON MAY 30 2016

Note: "fair" indicates few or no clouds below 12,000 feet with no
significant weather and/or obstructions to visibility. * = Denotes
station may not report precipitation (e.g., rain,snow,etc.),
thunder or fog.

VAZ042-051-052>054-056-301800-
NORTHERN VIRGINIA

CITY           SKY/WX    TMP DP  RH WIND       PRES   REMARKS
WASH NATIONAL  CLOUDY    78  68  71 S6        29.99F
DULLES         PTSUNNY   80  64  58 VRB5      30.00F
FORT BELVOIR   PTSUNNY   79  68  69 VRB3      29.99F
QUANTICO       FAIR      76  69  79 SW7       30.00F
FREDERICKSBRG* PTSUNNY   76  70  82 E3        29.99F
STAFFORD*      PTSUNNY   76  67  72 SE3       30.04F
WARRENTON      PTSUNNY   79  64  59 S3        30.00F
CULPEPER*      FAIR      80  66  62 CALM      30.01S
MANASSAS*      MOSUNNY   79  66  65 W3        30.00F
LEESBURG*      FAIR      82  68  61 SW5       30.00F
WINCHESTER     FAIR      79  61  53 CALM      30.00F
FRONT ROYAL*   FAIR      77  64  65 CALM      30.00F
LURAY*         FAIR      81  64  57 NW3       30.01S
$$

VAZ048-049-060>072-079>083-301800-
CENTRAL AND SOUTH CENTRAL VIRGINIA

CITY           SKY/WX    TMP DP  RH WIND       PRES   REMARKS
RICHMOND       LGT RAIN  75  70  84 CALM      30.00F
CHESTERFIELD*  CLOUDY    75  63  64 N5        30.01F
PETERSBURG*    CLOUDY    78  76  94 CALM      30.00F
HANOVER        CLOUDY    73  69  87 CALM      30.02S
TAPPAHANNOCK*  PTSUNNY   77  75  93 NW3       30.01S
QUINTON*       CLOUDY    75  72  90 S6        29.99F
CHARLOTTSVILLE CLOUDY    80  64  58 CALM      30.00F
GORDONSVILLE*  PTSUNNY   79  67  68 CALM      30.00S
ORANGE*        FAIR      81  68  65 CALM      30.02F
LOUISA*        PTSUNNY   81  73  78 SE5       29.99F
BUMPASS*       PTSUNNY   75  70  83 CALM      30.00F
FARMVILLE*     FAIR      78  68  71 SE3       29.99F
CREWE*         CLOUDY    72  72 100 CALM      30.01F
FORT PICKETT*  NOT AVBL
CHASE CITY*    CLOUDY    74  72  94 CALM      30.01F
CLARKSVILLE*   CLOUDY    72  72 100 CALM      30.00F
SOUTH HILL*    CLOUDY    74  71  91 CALM      30.05F
LAWRENCEVILLE* CLOUDY    75  73  91 NW3       29.99F
EMPORIA*       CLOUDY    79  72  78 E3        30.00F
$$

VAZ088>098-301800-
SOUTHEAST VIRGINIA

CITY           SKY/WX    TMP DP  RH WIND       PRES   REMARKS
NORFOLK        LGT RAIN  76  69  79 S7        30.00F
VIRGINIA BEACH LGT RAIN  79  71  76 SE7       29.99F
NORFOLK NAVAL  LGT RAIN  77  71  82 S6        30.01F
WEST POINT*    CLOUDY    73  71  93 SE6       30.01F
SALUDA*        CLOUDY    73  71  93 SE7       30.00F
NEWPORT NEWS   RAIN      72  70  93 NE7       30.00F FOG
LANGLEY AFB    CLOUDY    77  72  83 NE12      30.00F
FORT EUSTIS    LGT RAIN  72  58  60 E6        29.98F
WILLIAMSBURG*  FAIR      75  73  94 CALM      30.01S
HR EXEC AP*    PTSUNNY   77  72  83 SE7       30.01F
FRANKLIN*      CLOUDY    76  70  81 SE6       30.00F
US460-WAKEFLD  CLOUDY    78  71  79 CALM      29.99F
$$

VAZ020-022-025-037-045-301800-
WEST CENTRAL AND SOUTHWEST VIRGINIA

CITY           SKY/WX    TMP DP  RH WIND       PRES   REMARKS
STAUNTON*      FAIR      76  62  61 CALM      30.04F
WAYNESBORO*    FAIR      77  62  59 CALM      30.03F
HOT SPRINGS VA FAIR      71  57  61 NE5       30.13S
LYNCHBURG      FAIR      77  65  66 CALM      30.02F
DANVILLE       FAIR      79  68  69 VRB3      30.01F
SOUTH BOSTON*  PTSUNNY   75  71  87 CALM      30.01F
MARTINSVILLE   FAIR      77  66  67 NE6       30.04F
ROANOKE        FAIR      77  65  66 VRB3      30.05F
BLACKSBURG     FAIR      76  62  61 CALM      30.10F
DUBLIN*        FAIR      78  63  60 NW3       30.08F
MARION*        PTSUNNY   78  61  56 CALM      30.11F
HILLSVILLE*    FAIR      76  60  59 N5        30.08F
RICHLANDS*     PTSUNNY   76  47  36 CALM      30.09F
WISE*          PTSUNNY   79  54  41 CALM      30.12S
ABINGDON*      FAIR      81  63  54 CALM      30.07F
$$

MDZ021>025-VAZ099-100-301800-
SOUTHERN MARYLAND AND THE DELMARVA PENINSULA

CITY           SKY/WX    TMP DP  RH WIND       PRES   REMARKS
PATUXENT RIVER CLOUDY    71  67  87 NE3       30.00F
BAY BRIDGE APT CLOUDY    75  66  73 S6        29.99F
LEONARDTOWN    CLOUDY    70  68  94 CALM      30.02F
DOVER          CLOUDY    73  73 100 E7        29.98F
GEORGETOWN     HVY RAIN  70  69  97 N3        30.02R VSB 1/4
EASTON         LGT RAIN  73  72  94 CALM      30.04F
CAMBRIDGE      CLOUDY    72  70  94 CALM      30.00S
SALISBURY      LGT RAIN  73  71  93 VRB5      30.01F
OCEAN CITY     LGT RAIN  70  69  97 CALM      30.02F
WALLOPS ISLAND CLOUDY    73  71  93 S7        30.02F
ACCOMACK*      DRIZZLE   72  68  88 SW3       30.02F
$$

NCZ012>017-030>032-301800-
NORTH CENTRAL AND EASTERN NORTH CAROLINA

CITY           SKY/WX    TMP DP  RH WIND       PRES   REMARKS
ROANOKE RAPIDS LGT RAIN  77  70  78 SE5       29.99S
RALEIGH        PTSUNNY   80  71  74 N5        29.97S
ELIZABETH CITY LGT RAIN  75  72  90 SE8       30.01S
AHOSKIE*       CLOUDY    79  70  74 E5        29.99F
EDENTON*       MOSUNNY  N/A N/A N/A E6        30.01F
CURRITUCK*     DRIZZLE   75  74  99 CALM      30.02S
KILL DEVIL HLS LGT RAIN  72  71  96 CALM      30.00F
MANTEO         NOT AVBL
CAPE HATTERAS  HVY RAIN  71  70  96 S7        30.03S FOG
TARBORO*       PTSUNNY   81  71  72 SE3       29.99S
GOLDSBORO      HVY RAIN  73  73 100 SW13      29.95F FOG
WASHINGTON     MOSUNNY   80  71  74 NE5       29.98F
GREENVILLE     CLOUDY    79  72  78 E6        30.00F
NEW BERN       LGT RAIN  79  70  74 VRB3      29.97F
WILMINGTON     CLOUDY    81  70  69 S10       29.94F
$$

VAZ048-301800-
ELSEWHERE

CITY           SKY/WX    TMP DP  RH WIND       PRES   REMARKS
HARRISBURG PA  PTSUNNY   81  65  58 CALM      29.97F
BALTIMORE      PTSUNNY   79  64  60 SE3       29.98F
ANNAPOLIS      CLOUDY    73  68  84 SE10      29.99F
ANDREWS AFB    CLOUDY    79  68  69 S3        29.99F
PHILADELPHIA   CLOUDY    77  67  71 SW8       29.99S
HENDERSON NC   PTSUNNY   71  68  89 N5        30.00F
GREENSBORO     PTSUNNY   76  66  71 N7        30.01F
ROCKY MOUNT    PTSUNNY   82  71  69 NE7       29.97F
$$

VAZ100-301800-
MARINE

STATION/POSITION TIME  TEMP    WIND        PRES    WAVE   SWELL
                       AIR SEA DIR/SP/G            HT/PER HT/PER
                 (UTC) (F)     (DEG/KT/KT) (MB)    (FT/S) (FT/S)
BRANDYWINE LGT   1600   71     220/  4/  4 1016.4F
CAPE MAY NJ      1600   69 68  160/  5/  7 1016.1F
LEWES DE         1600   75 62  190/  5/  9 1016.0F
15NM E FENWICK I 1650   67 64              1016.6F   4/ 7
OCEAN-CITY-INLET 1600   66 65  200/  4/  6 1017.4S
WACHAPREAGUE VA  1600   72 76  190/  4/  6 1016.4F
THOMAS POINT MD  1700   71 70  180/  5/  6 1017.1F
GOOSES REEF MD   1700   71 70  270/  2/  2 1016.9F   1
COVE POINT MD    1600   67     340/  3/  4 1016.8F
SOLOMONS ISLAND  1600   70 66   50/  1/  2   N/A
BISHOPS HEAD MD  1600   72 75  180/  8/ 10 1016.5F
PINEY POINT MD   1600          350/  3/  3   N/A
POTOMAC MD       1700   70 71  190/ 10/ 12 1015.0F   1/ 2
CAMBRIDGE MD     1600   71 70  310/  3/  4 1015.3F
LEWISETTA VA     1600   72 70  110/  3/  4 1015.7F
RAPPAHANNOCK LGT 1600          210/  4/  4 1017.3F
STINGRAY PT      1700   69 69  150/  6/  8 1016.8F   0
YORK RVR RNG VA  1600   70      60/  9/  9 1016.0F
YORKTOWN VA      1600   70 72   60/  8/  9 1016.2F
JAMESTOWN VA     1700   73 75   70/  4/  6   N/A     0
DOMINION TERM VA 1600   74     170/  3/  3 1016.3F
KIPTOPEKE VA     1600      70  170/  4/  5   N/A
CHES BAY BRIDGE  1606   73 68  140/  2/  4 1016.3F
CAPE HENRY VA    1600   71     150/  8/ 11   N/A
CHESAPEAKE LGHT  1600   69     170/ 12/ 13 1017.3F
WILLOUBY STN VA  1600   75     140/  3/  3 1017.3F
CAPE HENRY BUOY  1612      69                N/A     4/ 7
1ST LANDING BUOY 1700   70 70  130/ 10/ 12 1015.9F   2/ 4
CAPE CHARLES BUO 1626      68                N/A     3/ 7   3/ 7
OFFSHORE WE BUOY 1651      70                N/A     4/ 6   3/ 6
64NM E OF VA BCH 1650   67 64  180/ 10/ 12 1016.7F   5/ 7   5/ 7
DUCK PIER NC     1600   64 58  140/  8/  8 1015.9F
44100 DUCK FRF   1624      67                N/A     4/ 7
44056 DUCK FRF   1611      62                N/A     3/ 7
OREGON INLET NC  1600   72 77  170/  5/  6 1016.4F
HATTERAS NC      1600   72 75  140/  5/  6 1016.2S
DIAMOND SHLS NC  1650   73 81  270/ 14/ 17 1016.2F   5/ 5   3/ 8
CAPE LOOKOUC1F1C2F2C3F3C4F4C5F5C6F6C7F7C8M1C9!



USA.gov is the U.S. government's official web portal to all federal, state and local government web resources and services.